{"data":{"norad_id":64902,"intl_designator":"2025-156D","name":"CO3D 2","alt_names":[],"object_type":"PAYLOAD","status":"ACTIVE","operator":null,"country":"FR","launch_date":"2025-07-26","launch_site_code":"FRGUI","launch_vehicle":null,"mission":null,"orbit_class":"UNKNOWN","rcs_meters":null,"size_class":null,"mass_kg":null,"dimensions":null,"purposes":["earth_obs"],"wikipedia_slug":null,"has_3d_model":false,"image_url":null,"decayed_at":null,"tle_current":{"epoch":"2026-05-25T04:22:29.140608Z","epoch_age_seconds":59373,"freshness":"FRESH","line1":"1 64902U 25156D   26145.18228172  .00004445  00000+0  20839-3 0  9990","line2":"2 64902  97.4321 224.1046 0001069 130.5470 229.5858 15.20194134 46036","mean_motion":15.20194134,"eccentricity":0.0001069,"inclination_deg":97.4321,"raan_deg":224.1046,"arg_perigee_deg":130.547,"mean_anomaly_deg":229.5858,"bstar":0.00020839,"rev_number":4603,"period_min":94.724743885902,"perigee_km":504.51869502631,"apogee_km":505.99036413534,"semimajor_km":6883.3915295808,"source":"CELESTRAK","updated_at":"2026-05-25T13:38:12.840004Z"}}}